Time,TemperatureF,DewpointF,PressureIn,WindDirection,WindDirectionDegrees,WindSpeedMPH,WindSpeedGustMPH,Humidity,HourlyPrecipIn,Conditions,Clouds,dailyrainin,SoftwareType,DateUTC
2013-03-22 00:00:00,19.7,10.9,29.91,NNE,24,6.0,11.0,68,0.00,,---,0.00,VWS V14.01,2013-03-22 04:00:00,
2013-03-22 00:02:00,19.8,11.0,29.91,NNE,15,9.0,9.0,68,0.00,,---,0.00,VWS V14.01,2013-03-22 04:02:00,
2013-03-22 00:07:00,19.8,11.0,29.91,NNW,331,7.0,17.0,68,0.00,,---,0.00,VWS V14.01,2013-03-22 04:07:00,
2013-03-22 00:12:00,19.8,11.0,29.91,North,5,10.0,11.0,68,0.00,,---,0.00,VWS V14.01,2013-03-22 04:12:00,
2013-03-22 00:17:00,19.8,11.0,29.92,NNW,337,8.0,12.0,68,0.00,,---,0.00,VWS V14.01,2013-03-22 04:17:00,
2013-03-22 00:22:00,19.8,11.0,29.92,NNW,342,5.0,11.0,68,0.00,,---,0.00,VWS V14.01,2013-03-22 04:22:00,
2013-03-22 00:27:00,19.8,11.3,29.91,West,261,2.0,12.0,69,0.00,,---,0.00,VWS V14.01,2013-03-22 04:27:00,
2013-03-22 00:32:00,19.8,11.3,29.92,North,355,7.0,10.0,69,0.00,,---,0.00,VWS V14.01,2013-03-22 04:32:00,
2013-03-22 00:37:00,19.7,11.2,29.92,NNW,336,7.0,10.0,69,0.00,,---,0.00,VWS V14.01,2013-03-22 04:37:00,
2013-03-22 00:42:00,19.7,11.2,29.92,North,350,8.0,12.0,69,0.00,,---,0.00,VWS V14.01,2013-03-22 04:42:00,
2013-03-22 00:47:00,19.7,11.5,29.92,NNW,336,5.0,12.0,70,0.00,,---,0.00,VWS V14.01,2013-03-22 04:47:00,
2013-03-22 00:52:00,19.6,11.4,29.91,North,349,8.0,10.0,70,0.00,,---,0.00,VWS V14.01,2013-03-22 04:52:00,
2013-03-22 00:58:00,19.5,11.3,29.91,NNW,342,8.0,12.0,70,0.00,,---,0.00,VWS V14.01,2013-03-22 04:58:00,
2013-03-22 01:03:00,19.4,11.2,29.91,North,11,10.0,10.0,70,0.00,,---,0.00,VWS V14.01,2013-03-22 05:03:00,
2013-03-22 01:08:00,19.4,11.6,29.91,NNW,343,7.0,15.0,71,0.00,,---,0.00,VWS V14.01,2013-03-22 05:08:00,
2013-03-22 01:13:00,19.3,11.4,29.91,ENE,68,2.0,10.0,71,0.00,,---,0.00,VWS V14.01,2013-03-22 05:13:00,
2013-03-22 01:18:00,19.3,11.8,29.91,North,355,4.0,11.0,72,0.00,,---,0.00,VWS V14.01,2013-03-22 05:18:00,
2013-03-22 01:23:00,19.3,11.8,29.91,North,355,7.0,11.0,72,0.00,,---,0.00,VWS V14.01,2013-03-22 05:23:00,
2013-03-22 01:28:00,19.4,11.9,29.91,North,355,2.0,14.0,72,0.00,,---,0.00,VWS V14.01,2013-03-22 05:28:00,
2013-03-22 01:33:00,19.4,11.9,29.91,NNW,331,9.0,12.0,72,0.00,,---,0.00,VWS V14.01,2013-03-22 05:33:00,
2013-03-22 01:38:00,19.3,11.8,29.91,NNW,331,8.0,18.0,72,0.00,,---,0.00,VWS V14.01,2013-03-22 05:38:00,
2013-03-22 01:43:00,19.3,11.8,29.91,NNE,30,7.0,13.0,72,0.00,,---,0.00,VWS V14.01,2013-03-22 05:43:00,
2013-03-22 01:48:00,19.3,12.1,29.91,NNE,21,7.0,13.0,73,0.00,,---,0.00,VWS V14.01,2013-03-22 05:48:00,
2013-03-22 01:53:00,19.3,12.1,29.91,North,360,7.0,12.0,73,0.00,,---,0.00,VWS V14.01,2013-03-22 05:53:00,
2013-03-22 01:59:00,19.3,12.1,29.91,North,355,9.0,12.0,73,0.00,,---,0.00,VWS V14.01,2013-03-22 05:59:00,
2013-03-22 02:04:00,19.3,12.1,29.91,NNW,345,9.0,12.0,73,0.00,,---,0.00,VWS V14.01,2013-03-22 06:04:00,
2013-03-22 02:09:00,19.4,12.2,29.91,NNW,341,7.0,12.0,73,0.00,,---,0.00,VWS V14.01,2013-03-22 06:09:00,
2013-03-22 02:14:00,19.4,11.9,29.91,NNW,340,7.0,12.0,72,0.00,,---,0.00,VWS V14.01,2013-03-22 06:14:00,
2013-03-22 02:19:00,19.4,11.9,29.91,NNW,331,9.0,13.0,72,0.00,,---,0.00,VWS V14.01,2013-03-22 06:19:00,
2013-03-22 02:24:00,19.4,12.2,29.92,NNW,332,9.0,11.0,73,0.00,,---,0.00,VWS V14.01,2013-03-22 06:24:00,
2013-03-22 02:29:00,19.4,11.9,29.92,NNW,338,10.0,13.0,72,0.00,,---,0.00,VWS V14.01,2013-03-22 06:29:00,
2013-03-22 02:34:00,19.3,12.1,29.92,NE,56,6.0,11.0,73,0.00,,---,0.00,VWS V14.01,2013-03-22 06:34:00,
2013-03-22 02:39:00,19.3,12.1,29.92,NNW,327,10.0,12.0,73,0.00,,---,0.00,VWS V14.01,2013-03-22 06:39:00,
2013-03-22 02:44:00,19.3,12.1,29.92,NW,321,6.0,12.0,73,0.00,,---,0.00,VWS V14.01,2013-03-22 06:44:00,
2013-03-22 02:49:00,19.4,12.2,29.91,NNW,345,9.0,17.0,73,0.00,,---,0.00,VWS V14.01,2013-03-22 06:49:00,
2013-03-22 02:54:00,19.4,12.2,29.91,North,5,3.0,12.0,73,0.00,,---,0.00,VWS V14.01,2013-03-22 06:54:00,
2013-03-22 02:59:00,19.4,12.2,29.91,NNW,335,9.0,12.0,73,0.00,,---,0.00,VWS V14.01,2013-03-22 06:59:00,
2013-03-22 03:04:00,19.4,12.2,29.91,North,5,10.0,13.0,73,0.00,,---,0.00,VWS V14.01,2013-03-22 07:04:00,
2013-03-22 03:09:00,19.5,12.3,29.91,North,360,9.0,13.0,73,0.00,,---,0.00,VWS V14.01,2013-03-22 07:09:00,
2013-03-22 03:14:00,19.6,12.4,29.91,NNW,337,8.0,12.0,73,0.00,,---,0.00,VWS V14.01,2013-03-22 07:14:00,
2013-03-22 03:20:00,19.6,12.4,29.91,North,360,7.0,12.0,73,0.00,,---,0.00,VWS V14.01,2013-03-22 07:20:00,
2013-03-22 03:25:00,19.5,12.3,29.91,North,5,4.0,10.0,73,0.00,,---,0.00,VWS V14.01,2013-03-22 07:25:00,
2013-03-22 03:30:00,19.5,12.3,29.91,NNW,341,8.0,11.0,73,0.00,,---,0.00,VWS V14.01,2013-03-22 07:30:00,
2013-03-22 03:35:00,19.4,12.2,29.91,NNW,346,9.0,12.0,73,0.00,,---,0.00,VWS V14.01,2013-03-22 07:35:00,
2013-03-22 03:40:00,19.5,12.3,29.91,NNW,333,6.0,12.0,73,0.00,,---,0.00,VWS V14.01,2013-03-22 07:40:00,
2013-03-22 03:45:00,19.5,12.3,29.91,NNW,336,6.0,9.0,73,0.00,,---,0.00,VWS V14.01,2013-03-22 07:45:00,
2013-03-22 03:50:00,19.5,12.6,29.92,NNW,327,6.0,9.0,74,0.00,,---,0.00,VWS V14.01,2013-03-22 07:50:00,
2013-03-22 03:55:00,19.6,12.7,29.91,West,276,8.0,10.0,74,0.00,,---,0.00,VWS V14.01,2013-03-22 07:55:00,
2013-03-22 04:00:00,19.7,12.5,29.91,NNW,346,5.0,13.0,73,0.00,,---,0.00,VWS V14.01,2013-03-22 08:00:00,
2013-03-22 04:05:00,19.8,12.9,29.91,NNW,342,8.0,10.0,74,0.00,,---,0.00,VWS V14.01,2013-03-22 08:05:00,
2013-03-22 04:10:00,19.9,13.0,29.91,SE,127,4.0,14.0,74,0.00,,---,0.00,VWS V14.01,2013-03-22 08:10:00,
2013-03-22 04:15:00,19.9,12.7,29.91,NNW,340,6.0,9.0,73,0.00,,---,0.00,VWS V14.01,2013-03-22 08:15:00,
2013-03-22 04:20:00,19.9,13.0,29.91,North,350,7.0,11.0,74,0.00,,---,0.00,VWS V14.01,2013-03-22 08:20:00,
2013-03-22 04:26:00,19.9,12.7,29.91,ESE,117,5.0,13.0,73,0.00,,---,0.00,VWS V14.01,2013-03-22 08:26:00,
2013-03-22 04:31:00,19.8,12.9,29.91,NNW,337,5.0,5.0,74,0.00,,---,0.00,VWS V14.01,2013-03-22 08:31:00,
2013-03-22 04:36:00,19.9,13.0,29.91,North,9,2.0,13.0,74,0.00,,---,0.00,VWS V14.01,2013-03-22 08:36:00,
2013-03-22 04:41:00,19.9,12.7,29.90,North,5,6.0,8.0,73,0.00,,---,0.00,VWS V14.01,2013-03-22 08:41:00,
2013-03-22 04:46:00,19.9,13.0,29.90,South,188,2.0,11.0,74,0.00,,---,0.00,VWS V14.01,2013-03-22 08:46:00,
2013-03-22 04:51:00,19.9,12.7,29.90,NNW,345,11.0,11.0,73,0.00,,---,0.00,VWS V14.01,2013-03-22 08:51:00,
2013-03-22 04:57:00,19.9,12.7,29.90,North,5,1.0,13.0,73,0.00,,---,0.00,VWS V14.01,2013-03-22 08:57:00,
2013-03-22 05:02:00,19.9,13.0,29.90,NNW,334,4.0,6.0,74,0.00,,---,0.00,VWS V14.01,2013-03-22 09:02:00,
2013-03-22 05:07:00,19.9,12.7,29.90,NNW,346,8.0,11.0,73,0.00,,---,0.00,VWS V14.01,2013-03-22 09:07:00,
2013-03-22 05:12:00,19.9,12.7,29.90,ENE,65,4.0,7.0,73,0.00,,---,0.00,VWS V14.01,2013-03-22 09:12:00,
2013-03-22 05:17:00,19.9,12.7,29.89,NE,50,7.0,15.0,73,0.00,,---,0.00,VWS V14.01,2013-03-22 09:17:00,
2013-03-22 05:22:00,19.9,12.7,29.89,North,355,6.0,9.0,73,0.00,,---,0.00,VWS V14.01,2013-03-22 09:22:00,
2013-03-22 05:27:00,20.0,12.8,29.89,North,355,9.0,11.0,73,0.00,,---,0.00,VWS V14.01,2013-03-22 09:27:00,
2013-03-22 05:32:00,20.0,12.8,29.90,North,355,6.0,11.0,73,0.00,,---,0.00,VWS V14.01,2013-03-22 09:32:00,
2013-03-22 05:37:00,20.0,12.8,29.90,North,5,6.0,11.0,73,0.00,,---,0.00,VWS V14.01,2013-03-22 09:37:00,
2013-03-22 05:42:00,20.1,12.9,29.90,WSW,250,4.0,10.0,73,0.00,,---,0.00,VWS V14.01,2013-03-22 09:42:00,
2013-03-22 05:48:00,20.1,12.9,29.90,NNE,22,7.0,11.0,73,0.00,,---,0.00,VWS V14.01,2013-03-22 09:48:00,
2013-03-22 05:53:00,20.1,12.9,29.90,NNW,336,9.0,10.0,73,0.00,,---,0.00,VWS V14.01,2013-03-22 09:53:00,
2013-03-22 05:58:00,20.1,12.9,29.91,NW,325,5.0,10.0,73,0.00,,---,0.00,VWS V14.01,2013-03-22 09:58:00,
2013-03-22 06:03:00,20.1,12.9,29.91,East,101,1.0,9.0,73,0.00,,---,0.00,VWS V14.01,2013-03-22 10:03:00,
2013-03-22 06:08:00,20.1,12.9,29.91,NW,312,6.0,10.0,73,0.00,,---,0.00,VWS V14.01,2013-03-22 10:08:00,
2013-03-22 06:13:00,20.1,12.9,29.91,North,355,4.0,9.0,73,0.00,,---,0.00,VWS V14.01,2013-03-22 10:13:00,
2013-03-22 06:18:00,20.1,12.9,29.91,NNW,333,8.0,10.0,73,0.00,,---,0.00,VWS V14.01,2013-03-22 10:18:00,
2013-03-22 06:23:00,20.2,12.6,29.91,NNW,346,3.0,10.0,72,0.00,,---,0.00,VWS V14.01,2013-03-22 10:23:00,
2013-03-22 06:28:00,20.2,12.6,29.91,NNW,344,9.0,11.0,72,0.00,,---,0.00,VWS V14.01,2013-03-22 10:28:00,
2013-03-22 06:33:00,20.2,12.9,29.91,NNW,348,7.0,10.0,73,0.00,,---,0.00,VWS V14.01,2013-03-22 10:33:00,
2013-03-22 06:38:00,20.2,12.9,29.91,WSW,249,2.0,11.0,73,0.00,,---,0.00,VWS V14.01,2013-03-22 10:38:00,
2013-03-22 06:43:00,20.2,12.9,29.91,NNE,22,8.0,10.0,73,0.00,,---,0.00,VWS V14.01,2013-03-22 10:43:00,
2013-03-22 06:48:00,20.3,13.0,29.92,North,350,7.0,14.0,73,0.00,,---,0.00,VWS V14.01,2013-03-22 10:48:00,
2013-03-22 06:54:00,20.3,13.4,29.92,NE,53,5.0,10.0,74,0.00,,---,0.00,VWS V14.01,2013-03-22 10:54:00,
2013-03-22 06:59:00,20.3,13.4,29.92,North,350,9.0,10.0,74,0.00,,---,0.00,VWS V14.01,2013-03-22 10:59:00,
2013-03-22 07:04:00,20.3,13.4,29.92,NNW,342,6.0,14.0,74,0.00,,---,0.00,VWS V14.01,2013-03-22 11:04:00,
2013-03-22 07:09:00,20.3,13.4,29.93,North,355,4.0,14.0,74,0.00,,---,0.00,VWS V14.01,2013-03-22 11:09:00,
2013-03-22 07:14:00,20.3,13.4,29.93,NW,312,4.0,10.0,74,0.00,,---,0.00,VWS V14.01,2013-03-22 11:14:00,
2013-03-22 07:19:00,20.3,13.4,29.93,North,5,5.0,11.0,74,0.00,,---,0.00,VWS V14.01,2013-03-22 11:19:00,
2013-03-22 07:24:00,20.4,13.4,29.94,NE,40,2.0,12.0,74,0.00,,---,0.00,VWS V14.01,2013-03-22 11:24:00,
2013-03-22 07:29:00,20.4,13.4,29.94,WSW,254,2.0,12.0,74,0.00,,---,0.00,VWS V14.01,2013-03-22 11:29:00,
2013-03-22 07:34:00,20.5,13.5,29.95,SE,139,2.0,8.0,74,0.00,,---,0.00,VWS V14.01,2013-03-22 11:34:00,
2013-03-22 07:39:00,20.5,13.9,29.95,North,350,5.0,8.0,75,0.00,,---,0.00,VWS V14.01,2013-03-22 11:39:00,
2013-03-22 07:44:00,20.6,13.9,29.96,NNW,346,5.0,7.0,75,0.00,,---,0.00,VWS V14.01,2013-03-22 11:44:00,
2013-03-22 07:49:00,20.7,14.0,29.95,NNW,336,4.0,7.0,75,0.00,,---,0.00,VWS V14.01,2013-03-22 11:49:00,
2013-03-22 07:54:00,20.8,13.8,29.96,NW,321,3.0,7.0,74,0.00,,---,0.00,VWS V14.01,2013-03-22 11:54:00,
2013-03-22 07:59:00,21.1,14.1,29.96,North,360,4.0,10.0,74,0.00,,---,0.00,VWS V14.01,2013-03-22 11:59:00,
2013-03-22 08:05:00,21.3,14.3,29.96,NW,313,1.0,9.0,74,0.00,,---,0.00,VWS V14.01,2013-03-22 12:05:00,
2013-03-22 08:10:00,21.6,14.3,29.96,North,355,6.0,12.0,73,0.00,,---,0.00,VWS V14.01,2013-03-22 12:10:00,
2013-03-22 08:15:00,21.7,14.1,29.96,NNW,345,3.0,10.0,72,0.00,,---,0.00,VWS V14.01,2013-03-22 12:15:00,
2013-03-22 08:20:00,22.0,14.4,29.96,NNW,337,3.0,11.0,72,0.00,,---,0.00,VWS V14.01,2013-03-22 12:20:00,
2013-03-22 08:25:00,22.2,14.6,29.96,NNE,19,2.0,11.0,72,0.00,,---,0.00,VWS V14.01,2013-03-22 12:25:00,
2013-03-22 08:30:00,22.5,14.5,29.96,North,360,8.0,12.0,71,0.00,,---,0.00,VWS V14.01,2013-03-22 12:30:00,
2013-03-22 08:35:00,22.7,14.7,29.96,NNE,30,2.0,7.0,71,0.00,,---,0.00,VWS V14.01,2013-03-22 12:35:00,
2013-03-22 08:40:00,23.0,15.0,29.96,North,355,2.0,12.0,71,0.00,,---,0.00,VWS V14.01,2013-03-22 12:40:00,
2013-03-22 08:45:00,23.3,15.0,29.96,North,5,5.0,15.0,70,0.00,,---,0.00,VWS V14.01,2013-03-22 12:45:00,
2013-03-22 08:50:00,23.4,15.1,29.97,NNW,339,7.0,15.0,70,0.00,,---,0.00,VWS V14.01,2013-03-22 12:50:00,
2013-03-22 08:55:00,23.5,15.2,29.97,NNW,341,10.0,12.0,70,0.00,,---,0.00,VWS V14.01,2013-03-22 12:55:00,
2013-03-22 09:00:00,23.8,15.8,29.97,NNE,23,5.0,12.0,71,0.00,,---,0.00,VWS V14.01,2013-03-22 13:00:00,
2013-03-22 09:05:00,24.1,15.4,29.97,North,349,7.0,12.0,69,0.00,,---,0.00,VWS V14.01,2013-03-22 13:05:00,
2013-03-22 09:11:00,24.1,15.4,29.97,North,355,3.0,15.0,69,0.00,,---,0.00,VWS V14.01,2013-03-22 13:11:00,
2013-03-22 09:16:00,24.0,15.0,29.97,North,360,4.0,11.0,68,0.00,,---,0.00,VWS V14.01,2013-03-22 13:16:00,
2013-03-22 09:21:00,24.1,15.4,29.97,NNW,340,10.0,11.0,69,0.00,,---,0.00,VWS V14.01,2013-03-22 13:21:00,
2013-03-22 09:27:00,24.3,15.3,29.97,NNW,339,4.0,15.0,68,0.00,,---,0.00,VWS V14.01,2013-03-22 13:27:00,
2013-03-22 09:32:00,24.3,15.3,29.97,NNW,347,6.0,10.0,68,0.00,,---,0.00,VWS V14.01,2013-03-22 13:32:00,
2013-03-22 09:37:00,24.3,15.3,29.97,NNW,329,9.0,13.0,68,0.00,,---,0.00,VWS V14.01,2013-03-22 13:37:00,
2013-03-22 09:42:00,24.9,15.5,29.97,NW,311,9.0,9.0,67,0.00,,---,0.00,VWS V14.01,2013-03-22 13:42:00,
2013-03-22 09:47:00,25.1,15.7,29.97,NNW,337,9.0,12.0,67,0.00,,---,0.00,VWS V14.01,2013-03-22 13:47:00,
2013-03-22 09:52:00,24.9,15.2,29.97,NNE,26,7.0,13.0,66,0.00,,---,0.00,VWS V14.01,2013-03-22 13:52:00,
2013-03-22 09:57:00,25.0,15.3,29.97,NW,324,10.0,14.0,66,0.00,,---,0.00,VWS V14.01,2013-03-22 13:57:00,
2013-03-22 10:03:00,25.3,15.2,29.97,NNE,19,8.0,11.0,65,0.00,,---,0.00,VWS V14.01,2013-03-22 14:03:00,
2013-03-22 10:08:00,25.7,15.6,29.98,NNE,17,10.0,15.0,65,0.00,,---,0.00,VWS V14.01,2013-03-22 14:08:00,
2013-03-22 10:13:00,26.0,15.5,29.97,NNW,346,12.0,14.0,64,0.00,,---,0.00,VWS V14.01,2013-03-22 14:13:00,
2013-03-22 10:18:00,25.9,15.4,29.97,NNW,331,13.0,14.0,64,0.00,,---,0.00,VWS V14.01,2013-03-22 14:18:00,
2013-03-22 10:23:00,26.1,15.2,29.98,NNW,340,8.0,13.0,63,0.00,,---,0.00,VWS V14.01,2013-03-22 14:23:00,
2013-03-22 10:28:00,26.1,15.2,29.98,NNW,336,10.0,13.0,63,0.00,,---,0.00,VWS V14.01,2013-03-22 14:28:00,
2013-03-22 10:33:00,26.5,16.0,29.97,North,355,9.0,9.0,64,0.00,,---,0.00,VWS V14.01,2013-03-22 14:33:00,
2013-03-22 10:38:00,26.9,15.6,29.98,North,351,5.0,12.0,62,0.00,,---,0.00,VWS V14.01,2013-03-22 14:38:00,
2013-03-22 10:43:00,27.2,15.9,29.97,NNW,344,7.0,14.0,62,0.00,,---,0.00,VWS V14.01,2013-03-22 14:43:00,
2013-03-22 10:48:00,27.5,16.2,29.97,North,5,3.0,14.0,62,0.00,,---,0.00,VWS V14.01,2013-03-22 14:48:00,
2013-03-22 10:53:00,27.8,15.7,29.97,North,355,6.0,14.0,60,0.00,,---,0.00,VWS V14.01,2013-03-22 14:53:00,
2013-03-22 10:58:00,28.0,15.9,29.97,NE,46,4.0,14.0,60,0.00,,---,0.00,VWS V14.01,2013-03-22 14:58:00,
2013-03-22 11:03:00,28.1,16.0,29.97,NW,315,10.0,16.0,60,0.00,,---,0.00,VWS V14.01,2013-03-22 15:03:00,
2013-03-22 11:08:00,28.0,15.9,29.97,NE,51,5.0,16.0,60,0.00,,---,0.00,VWS V14.01,2013-03-22 15:08:00,
2013-03-22 11:13:00,28.3,15.8,29.97,North,349,4.0,12.0,59,0.00,,---,0.00,VWS V14.01,2013-03-22 15:13:00,
2013-03-22 11:19:00,28.5,16.0,29.97,North,5,8.0,14.0,59,0.00,,---,0.00,VWS V14.01,2013-03-22 15:19:00,
2013-03-22 11:24:00,28.7,15.8,29.97,NE,38,2.0,10.0,58,0.00,,---,0.00,VWS V14.01,2013-03-22 15:24:00,
2013-03-22 11:29:00,29.4,16.5,29.97,ESE,107,4.0,13.0,58,0.00,,---,0.00,VWS V14.01,2013-03-22 15:29:00,
2013-03-22 11:34:00,29.4,16.5,29.97,NW,313,5.0,12.0,58,0.00,,---,0.00,VWS V14.01,2013-03-22 15:34:00,
2013-03-22 11:39:00,29.3,16.0,29.97,NE,42,9.0,17.0,57,0.00,,---,0.00,VWS V14.01,2013-03-22 15:39:00,
2013-03-22 11:44:00,29.6,16.6,29.97,NNW,348,10.0,13.0,58,0.00,,---,0.00,VWS V14.01,2013-03-22 15:44:00,
2013-03-22 11:49:00,30.1,17.1,29.97,North,355,5.0,13.0,58,0.00,,---,0.00,VWS V14.01,2013-03-22 15:49:00,
2013-03-22 11:54:00,30.2,16.8,29.97,NW,321,6.0,12.0,57,0.00,,---,0.00,VWS V14.01,2013-03-22 15:54:00,
2013-03-22 11:59:00,30.8,17.4,29.97,North,355,2.0,12.0,57,0.00,,---,0.00,VWS V14.01,2013-03-22 15:59:00,
2013-03-22 12:06:00,31.5,17.6,29.97,NNE,15,4.0,8.0,56,0.00,,---,0.00,VWS V14.01,2013-03-22 16:06:00,
2013-03-22 12:11:00,31.7,17.8,29.97,NNE,30,5.0,7.0,56,0.00,,---,0.00,VWS V14.01,2013-03-22 16:11:00,
2013-03-22 12:16:00,32.4,18.0,29.97,North,355,5.0,9.0,55,0.00,,---,0.00,VWS V14.01,2013-03-22 16:16:00,
2013-03-22 12:21:00,32.8,18.8,29.98,North,360,7.0,8.0,56,0.00,,---,0.00,VWS V14.01,2013-03-22 16:21:00,
2013-03-22 12:26:00,32.6,17.4,29.98,North,355,1.0,9.0,53,0.00,,---,0.00,VWS V14.01,2013-03-22 16:26:00,
2013-03-22 12:31:00,33.4,17.7,29.98,NW,311,3.0,6.0,52,0.00,,---,0.00,VWS V14.01,2013-03-22 16:31:00,
2013-03-22 12:37:00,33.1,16.5,29.97,SW,226,3.0,10.0,50,0.00,,---,0.00,VWS V14.01,2013-03-22 16:37:00,
2013-03-22 12:42:00,33.1,17.0,29.97,NW,322,7.0,8.0,51,0.00,,---,0.00,VWS V14.01,2013-03-22 16:42:00,
2013-03-22 12:47:00,33.1,17.4,29.98,North,355,4.0,8.0,52,0.00,,---,0.00,VWS V14.01,2013-03-22 16:47:00,
2013-03-22 12:52:00,33.5,18.2,29.98,West,281,3.0,3.0,53,0.00,,---,0.00,VWS V14.01,2013-03-22 16:52:00,
2013-03-22 12:57:00,33.8,17.1,29.98,North,350,2.0,9.0,50,0.00,,---,0.00,VWS V14.01,2013-03-22 16:57:00,
2013-03-22 13:03:00,33.8,18.0,29.98,SE,146,1.0,4.0,52,0.00,,---,0.00,VWS V14.01,2013-03-22 17:03:00,
2013-03-22 13:08:00,34.7,18.0,29.98,NE,42,4.0,8.0,50,0.00,,---,0.00,VWS V14.01,2013-03-22 17:08:00,
2013-03-22 13:13:00,34.6,18.3,29.98,North,5,3.0,10.0,51,0.00,,---,0.00,VWS V14.01,2013-03-22 17:13:00,
2013-03-22 13:18:00,34.4,17.2,29.98,WSW,244,2.0,11.0,49,0.00,,---,0.00,VWS V14.01,2013-03-22 17:18:00,
2013-03-22 13:23:00,35.3,18.1,29.97,WSW,245,1.0,6.0,49,0.00,,---,0.00,VWS V14.01,2013-03-22 17:23:00,
2013-03-22 13:28:00,35.2,17.5,29.97,NW,321,5.0,11.0,48,0.00,,---,0.00,VWS V14.01,2013-03-22 17:28:00,
2013-03-22 13:33:00,34.8,18.1,29.97,North,355,6.0,9.0,50,0.00,,---,0.00,VWS V14.01,2013-03-22 17:33:00,
2013-03-22 13:38:00,34.7,18.4,29.96,NW,322,5.0,10.0,51,0.00,,---,0.00,VWS V14.01,2013-03-22 17:38:00,
2013-03-22 13:43:00,34.7,18.0,29.97,North,360,4.0,8.0,50,0.00,,---,0.00,VWS V14.01,2013-03-22 17:43:00,
2013-03-22 13:48:00,35.0,18.7,29.96,North,360,3.0,9.0,51,0.00,,---,0.00,VWS V14.01,2013-03-22 17:48:00,
2013-03-22 13:53:00,35.7,18.9,29.96,NNE,32,1.0,11.0,50,0.00,,---,0.00,VWS V14.01,2013-03-22 17:53:00,
2013-03-22 13:58:00,36.2,18.4,29.96,North,5,5.0,12.0,48,0.00,,---,0.00,VWS V14.01,2013-03-22 17:58:00,
2013-03-22 14:03:00,36.2,18.4,29.96,North,5,4.0,9.0,48,0.00,,---,0.00,VWS V14.01,2013-03-22 18:03:00,
2013-03-22 14:08:00,36.1,18.3,29.96,NNE,12,4.0,10.0,48,0.00,,---,0.00,VWS V14.01,2013-03-22 18:08:00,
2013-03-22 14:13:00,36.3,18.5,29.96,North,355,4.0,7.0,48,0.00,,---,0.00,VWS V14.01,2013-03-22 18:13:00,
2013-03-22 14:18:00,36.7,19.8,29.95,North,10,9.0,10.0,50,0.00,,---,0.00,VWS V14.01,2013-03-22 18:18:00,
2013-03-22 14:24:00,36.9,19.1,29.95,North,349,3.0,12.0,48,0.00,,---,0.00,VWS V14.01,2013-03-22 18:24:00,
2013-03-22 14:29:00,36.9,19.1,29.95,NNE,17,2.0,12.0,48,0.00,,---,0.00,VWS V14.01,2013-03-22 18:29:00,
2013-03-22 14:34:00,36.9,19.1,29.95,North,355,1.0,10.0,48,0.00,,---,0.00,VWS V14.01,2013-03-22 18:34:00,
2013-03-22 14:39:00,37.2,19.3,29.95,North,11,3.0,10.0,48,0.00,,---,0.00,VWS V14.01,2013-03-22 18:39:00,
2013-03-22 14:44:00,37.5,20.1,29.95,NNE,26,5.0,8.0,49,0.00,,---,0.00,VWS V14.01,2013-03-22 18:44:00,
2013-03-22 14:49:00,37.8,19.4,29.96,WNW,299,4.0,8.0,47,0.00,,---,0.00,VWS V14.01,2013-03-22 18:49:00,
2013-03-22 14:54:00,38.0,19.1,29.95,SW,236,7.0,9.0,46,0.00,,---,0.00,VWS V14.01,2013-03-22 18:54:00,
2013-03-22 14:59:00,38.8,20.3,29.96,ESE,119,2.0,9.0,47,0.00,,---,0.00,VWS V14.01,2013-03-22 18:59:00,
2013-03-22 15:04:00,39.2,19.7,29.95,North,351,3.0,8.0,45,0.00,,---,0.00,VWS V14.01,2013-03-22 19:04:00,
2013-03-22 15:09:00,39.7,19.6,29.95,South,174,0.0,8.0,44,0.00,,---,0.00,VWS V14.01,2013-03-22 19:09:00,
2013-03-22 15:14:00,39.8,18.6,29.96,NW,304,2.0,7.0,42,0.00,,---,0.00,VWS V14.01,2013-03-22 19:14:00,
2013-03-22 15:19:00,39.3,19.2,29.95,WNW,286,3.0,9.0,44,0.00,,---,0.00,VWS V14.01,2013-03-22 19:19:00,
2013-03-22 15:24:00,39.2,20.2,29.95,NE,40,3.0,8.0,46,0.00,,---,0.00,VWS V14.01,2013-03-22 19:24:00,
2013-03-22 15:30:00,38.8,18.8,29.95,NNW,337,6.0,9.0,44,0.00,,---,0.00,VWS V14.01,2013-03-22 19:30:00,
2013-03-22 15:35:00,39.0,19.5,29.95,NE,55,4.0,9.0,45,0.00,,---,0.00,VWS V14.01,2013-03-22 19:35:00,
2013-03-22 15:40:00,38.8,19.8,29.95,North,350,2.0,10.0,46,0.00,,---,0.00,VWS V14.01,2013-03-22 19:40:00,
2013-03-22 15:45:00,38.8,20.3,29.95,SW,217,4.0,9.0,47,0.00,,---,0.00,VWS V14.01,2013-03-22 19:45:00,
2013-03-22 15:50:00,38.5,19.5,29.95,NE,46,5.0,9.0,46,0.00,,---,0.00,VWS V14.01,2013-03-22 19:50:00,
2013-03-22 15:55:00,38.4,19.9,29.95,North,10,4.0,8.0,47,0.00,,---,0.00,VWS V14.01,2013-03-22 19:55:00,
2013-03-22 16:00:00,38.6,19.6,29.95,East,92,2.0,11.0,46,0.00,,---,0.00,VWS V14.01,2013-03-22 20:00:00,
2013-03-22 16:05:00,39.0,20.0,29.95,NW,315,7.0,7.0,46,0.00,,---,0.00,VWS V14.01,2013-03-22 20:05:00,
2013-03-22 16:10:00,38.9,19.9,29.95,NW,321,7.0,11.0,46,0.00,,---,0.00,VWS V14.01,2013-03-22 20:10:00,
2013-03-22 16:15:00,39.0,19.5,29.95,NNE,14,1.0,9.0,45,0.00,,---,0.00,VWS V14.01,2013-03-22 20:15:00,
2013-03-22 16:20:00,39.4,20.4,29.95,NW,321,2.0,9.0,46,0.00,,---,0.00,VWS V14.01,2013-03-22 20:20:00,
2013-03-22 16:25:00,39.3,20.3,29.95,North,355,4.0,8.0,46,0.00,,---,0.00,VWS V14.01,2013-03-22 20:25:00,
2013-03-22 16:30:00,39.1,20.1,29.94,NNE,14,5.0,10.0,46,0.00,,---,0.00,VWS V14.01,2013-03-22 20:30:00,
2013-03-22 16:36:00,38.8,19.8,29.95,NNW,348,1.0,8.0,46,0.00,,---,0.00,VWS V14.01,2013-03-22 20:36:00,
2013-03-22 16:41:00,39.1,20.6,29.95,NNW,332,4.0,8.0,47,0.00,,---,0.00,VWS V14.01,2013-03-22 20:41:00,
2013-03-22 16:46:00,39.4,20.4,29.95,North,360,3.0,5.0,46,0.00,,---,0.00,VWS V14.01,2013-03-22 20:46:00,
2013-03-22 16:51:00,39.5,18.9,29.95,NNW,341,6.0,8.0,43,0.00,,---,0.00,VWS V14.01,2013-03-22 20:51:00,
2013-03-22 16:56:00,39.6,21.0,29.95,NW,309,2.0,4.0,47,0.00,,---,0.00,VWS V14.01,2013-03-22 20:56:00,
2013-03-22 17:01:00,39.8,20.2,29.95,NNW,341,1.0,3.0,45,0.00,,---,0.00,VWS V14.01,2013-03-22 21:01:00,
2013-03-22 17:06:00,39.7,20.1,29.95,North,350,5.0,5.0,45,0.00,,---,0.00,VWS V14.01,2013-03-22 21:06:00,
2013-03-22 17:11:00,39.4,19.3,29.95,WNW,294,3.0,5.0,44,0.00,,---,0.00,VWS V14.01,2013-03-22 21:11:00,
2013-03-22 17:16:00,39.3,20.8,29.95,North,355,1.0,5.0,47,0.00,,---,0.00,VWS V14.01,2013-03-22 21:16:00,
2013-03-22 17:21:00,39.3,19.8,29.95,NW,320,1.0,5.0,45,0.00,,---,0.00,VWS V14.01,2013-03-22 21:21:00,
2013-03-22 17:27:00,38.7,19.2,29.95,NNW,343,7.0,8.0,45,0.00,,---,0.00,VWS V14.01,2013-03-22 21:27:00,
2013-03-22 17:32:00,37.8,18.9,29.95,NW,326,3.0,9.0,46,0.00,,---,0.00,VWS V14.01,2013-03-22 21:32:00,
2013-03-22 17:37:00,37.5,19.1,29.95,NNW,344,3.0,10.0,47,0.00,,---,0.00,VWS V14.01,2013-03-22 21:37:00,
2013-03-22 17:42:00,37.1,19.2,29.95,NNW,346,3.0,4.0,48,0.00,,---,0.00,VWS V14.01,2013-03-22 21:42:00,
2013-03-22 17:47:00,37.0,19.1,29.95,NNW,339,3.0,6.0,48,0.00,,---,0.00,VWS V14.01,2013-03-22 21:47:00,
2013-03-22 17:52:00,36.9,20.5,29.95,ENE,77,3.0,5.0,51,0.00,,---,0.00,VWS V14.01,2013-03-22 21:52:00,
2013-03-22 17:57:00,36.7,19.4,29.95,NE,36,5.0,10.0,49,0.00,,---,0.00,VWS V14.01,2013-03-22 21:57:00,
2013-03-22 18:02:00,36.3,18.5,29.95,NNW,340,6.0,10.0,48,0.00,,---,0.00,VWS V14.01,2013-03-22 22:02:00,
2013-03-22 18:07:00,35.5,19.2,29.95,NNE,30,3.0,10.0,51,0.00,,---,0.00,VWS V14.01,2013-03-22 22:07:00,
2013-03-22 18:12:00,35.2,18.9,29.95,NNE,25,4.0,7.0,51,0.00,,---,0.00,VWS V14.01,2013-03-22 22:12:00,
2013-03-22 18:18:00,35.0,19.2,29.96,ENE,61,0.0,8.0,52,0.00,,---,0.00,VWS V14.01,2013-03-22 22:18:00,
2013-03-22 18:23:00,35.2,19.8,29.96,North,360,4.0,6.0,53,0.00,,---,0.00,VWS V14.01,2013-03-22 22:23:00,
2013-03-22 18:28:00,35.4,20.0,29.96,North,9,1.0,7.0,53,0.00,,---,0.00,VWS V14.01,2013-03-22 22:28:00,
2013-03-22 18:33:00,35.4,20.0,29.96,NNW,338,1.0,9.0,53,0.00,,---,0.00,VWS V14.01,2013-03-22 22:33:00,
2013-03-22 18:38:00,35.2,19.4,29.96,NE,37,2.0,9.0,52,0.00,,---,0.00,VWS V14.01,2013-03-22 22:38:00,
2013-03-22 18:43:00,34.9,20.0,29.97,NNW,327,5.0,8.0,54,0.00,,---,0.00,VWS V14.01,2013-03-22 22:43:00,
2013-03-22 18:48:00,34.6,19.2,29.96,NNW,342,4.0,8.0,53,0.00,,---,0.00,VWS V14.01,2013-03-22 22:48:00,
2013-03-22 18:53:00,34.3,19.4,29.97,North,360,6.0,6.0,54,0.00,,---,0.00,VWS V14.01,2013-03-22 22:53:00,
2013-03-22 18:58:00,34.1,19.2,29.97,NNW,344,5.0,8.0,54,0.00,,---,0.00,VWS V14.01,2013-03-22 22:58:00,
2013-03-22 19:03:00,33.8,18.5,29.97,NNW,344,3.0,11.0,53,0.00,,---,0.00,VWS V14.01,2013-03-22 23:03:00,
2013-03-22 19:08:00,33.6,19.6,29.97,North,10,3.0,11.0,56,0.00,,---,0.00,VWS V14.01,2013-03-22 23:08:00,
2013-03-22 19:13:00,33.3,19.3,29.97,NNW,346,5.0,7.0,56,0.00,,---,0.00,VWS V14.01,2013-03-22 23:13:00,
2013-03-22 19:18:00,33.0,19.0,29.98,North,355,4.0,7.0,56,0.00,,---,0.00,VWS V14.01,2013-03-22 23:18:00,
2013-03-22 19:24:00,32.8,18.8,29.98,NNW,345,2.0,6.0,56,0.00,,---,0.00,VWS V14.01,2013-03-22 23:24:00,
2013-03-22 19:29:00,32.6,19.1,29.98,North,355,3.0,6.0,57,0.00,,---,0.00,VWS V14.01,2013-03-22 23:29:00,
2013-03-22 19:34:00,32.4,19.3,29.98,NNW,348,3.0,6.0,58,0.00,,---,0.00,VWS V14.01,2013-03-22 23:34:00,
2013-03-22 19:39:00,32.2,19.1,29.98,NNE,27,3.0,6.0,58,0.00,,---,0.00,VWS V14.01,2013-03-22 23:39:00,
2013-03-22 19:44:00,32.0,18.9,29.98,North,5,2.0,4.0,58,0.00,,---,0.00,VWS V14.01,2013-03-22 23:44:00,
2013-03-22 19:49:00,31.7,19.0,29.98,North,350,2.0,4.0,59,0.00,,---,0.00,VWS V14.01,2013-03-22 23:49:00,
2013-03-22 19:54:00,31.5,19.2,29.99,NNE,20,3.0,4.0,60,0.00,,---,0.00,VWS V14.01,2013-03-22 23:54:00,
2013-03-22 19:59:00,31.5,18.8,29.99,NNE,12,4.0,5.0,59,0.00,,---,0.00,VWS V14.01,2013-03-22 23:59:00,
2013-03-22 20:04:00,31.4,19.1,29.99,North,360,1.0,4.0,60,0.00,,---,0.00,VWS V14.01,2013-03-23 00:04:00,
2013-03-22 20:09:00,31.3,19.0,29.99,North,355,3.0,6.0,60,0.00,,---,0.00,VWS V14.01,2013-03-23 00:09:00,
2013-03-22 20:14:00,31.2,19.0,29.99,North,351,2.0,3.0,60,0.00,,---,0.00,VWS V14.01,2013-03-23 00:14:00,
2013-03-22 20:19:00,31.1,18.9,29.99,NNE,26,2.0,4.0,60,0.00,,---,0.00,VWS V14.01,2013-03-23 00:19:00,
2013-03-22 20:24:00,31.0,18.8,29.99,NNW,329,1.0,3.0,60,0.00,,---,0.00,VWS V14.01,2013-03-23 00:24:00,
2013-03-22 20:29:00,31.0,18.8,29.99,NNE,20,1.0,4.0,60,0.00,,---,0.00,VWS V14.01,2013-03-23 00:29:00,
2013-03-22 20:34:00,31.0,18.8,29.99,NE,44,1.0,5.0,60,0.00,,---,0.00,VWS V14.01,2013-03-23 00:34:00,
2013-03-22 20:39:00,30.9,19.0,30.00,NNE,15,2.0,5.0,61,0.00,,---,0.00,VWS V14.01,2013-03-23 00:39:00,
2013-03-22 20:44:00,30.8,19.0,30.00,NNW,345,2.0,3.0,61,0.00,,---,0.00,VWS V14.01,2013-03-23 00:44:00,
2013-03-22 20:49:00,30.8,18.6,30.00,North,9,2.0,3.0,60,0.00,,---,0.00,VWS V14.01,2013-03-23 00:49:00,
2013-03-22 20:55:00,30.8,18.6,30.00,NNW,343,2.0,6.0,60,0.00,,---,0.00,VWS V14.01,2013-03-23 00:55:00,
2013-03-22 21:00:00,30.8,18.6,30.00,NE,53,1.0,6.0,60,0.00,,---,0.00,VWS V14.01,2013-03-23 01:00:00,
2013-03-22 21:05:00,31.0,18.4,30.00,North,350,3.0,7.0,59,0.00,,---,0.00,VWS V14.01,2013-03-23 01:05:00,
2013-03-22 21:10:00,31.0,18.4,30.00,North,349,4.0,7.0,59,0.00,,---,0.00,VWS V14.01,2013-03-23 01:10:00,
2013-03-22 21:15:00,30.9,18.7,30.00,WNW,302,5.0,5.0,60,0.00,,---,0.00,VWS V14.01,2013-03-23 01:15:00,
2013-03-22 21:20:00,30.9,18.3,30.00,North,355,5.0,6.0,59,0.00,,---,0.00,VWS V14.01,2013-03-23 01:20:00,
2013-03-22 21:25:00,31.0,18.4,30.00,North,355,2.0,6.0,59,0.00,,---,0.00,VWS V14.01,2013-03-23 01:25:00,
2013-03-22 21:30:00,31.0,18.8,30.00,NNW,340,3.0,7.0,60,0.00,,---,0.00,VWS V14.01,2013-03-23 01:30:00,
2013-03-22 21:35:00,30.9,18.3,30.00,NNW,333,4.0,7.0,59,0.00,,---,0.00,VWS V14.01,2013-03-23 01:35:00,
2013-03-22 21:40:00,31.0,18.8,30.00,NE,51,2.0,7.0,60,0.00,,---,0.00,VWS V14.01,2013-03-23 01:40:00,
2013-03-22 21:45:00,31.1,18.5,30.00,NNE,12,1.0,5.0,59,0.00,,---,0.00,VWS V14.01,2013-03-23 01:45:00,
2013-03-22 21:50:00,30.9,18.3,30.00,NNE,19,1.0,6.0,59,0.00,,---,0.00,VWS V14.01,2013-03-23 01:50:00,
2013-03-22 21:55:00,30.7,18.5,30.00,North,11,1.0,6.0,60,0.00,,---,0.00,VWS V14.01,2013-03-23 01:55:00,
2013-03-22 22:00:00,30.8,18.6,30.01,NNE,20,2.0,7.0,60,0.00,,---,0.00,VWS V14.01,2013-03-23 02:00:00,
2013-03-22 22:05:00,30.8,18.6,30.01,NE,38,2.0,6.0,60,0.00,,---,0.00,VWS V14.01,2013-03-23 02:05:00,
2013-03-22 22:10:00,30.7,18.1,30.01,North,9,1.0,6.0,59,0.00,,---,0.00,VWS V14.01,2013-03-23 02:10:00,
2013-03-22 22:16:00,30.6,18.0,30.01,NNE,26,3.0,6.0,59,0.00,,---,0.00,VWS V14.01,2013-03-23 02:16:00,
2013-03-22 22:21:00,30.7,18.1,30.01,NE,42,3.0,7.0,59,0.00,,---,0.00,VWS V14.01,2013-03-23 02:21:00,
2013-03-22 22:26:00,30.6,18.0,30.01,North,355,6.0,8.0,59,0.00,,---,0.00,VWS V14.01,2013-03-23 02:26:00,
2013-03-22 22:31:00,30.6,18.0,30.01,NNW,344,3.0,8.0,59,0.00,,---,0.00,VWS V14.01,2013-03-23 02:31:00,
2013-03-22 22:36:00,30.5,17.9,30.02,NNW,348,3.0,5.0,59,0.00,,---,0.00,VWS V14.01,2013-03-23 02:36:00,
2013-03-22 22:41:00,30.5,17.9,30.01,North,349,2.0,3.0,59,0.00,,---,0.00,VWS V14.01,2013-03-23 02:41:00,
2013-03-22 22:46:00,30.5,17.9,30.01,NNW,348,3.0,7.0,59,0.00,,---,0.00,VWS V14.01,2013-03-23 02:46:00,
2013-03-22 22:51:00,30.5,17.9,30.02,NNW,338,4.0,4.0,59,0.00,,---,0.00,VWS V14.01,2013-03-23 02:51:00,
2013-03-22 22:56:00,30.3,17.7,30.02,North,360,3.0,7.0,59,0.00,,---,0.00,VWS V14.01,2013-03-23 02:56:00,
2013-03-22 23:01:00,30.1,17.9,30.02,NNE,17,3.0,4.0,60,0.00,,---,0.00,VWS V14.01,2013-03-23 03:01:00,
2013-03-22 23:06:00,30.0,17.8,30.02,NNE,13,4.0,6.0,60,0.00,,---,0.00,VWS V14.01,2013-03-23 03:06:00,
2013-03-22 23:11:00,29.9,17.7,30.02,NE,34,1.0,4.0,60,0.00,,---,0.00,VWS V14.01,2013-03-23 03:11:00,
2013-03-22 23:17:00,29.9,17.7,30.02,North,355,6.0,6.0,60,0.00,,---,0.00,VWS V14.01,2013-03-23 03:17:00,
2013-03-22 23:22:00,29.8,17.2,30.02,NNW,346,4.0,6.0,59,0.00,,---,0.00,VWS V14.01,2013-03-23 03:22:00,
2013-03-22 23:27:00,29.8,17.2,30.02,NW,323,4.0,7.0,59,0.00,,---,0.00,VWS V14.01,2013-03-23 03:27:00,
2013-03-22 23:32:00,29.9,16.9,30.02,East,88,2.0,6.0,58,0.00,,---,0.00,VWS V14.01,2013-03-23 03:32:00,
2013-03-22 23:37:00,29.9,17.3,30.03,North,355,3.0,8.0,59,0.00,,---,0.00,VWS V14.01,2013-03-23 03:37:00,
2013-03-22 23:42:00,29.8,17.2,30.03,NNW,338,2.0,6.0,59,0.00,,---,0.00,VWS V14.01,2013-03-23 03:42:00,
2013-03-22 23:47:00,29.8,17.2,30.03,NNW,331,2.0,10.0,59,0.00,,---,0.00,VWS V14.01,2013-03-23 03:47:00,
2013-03-22 23:52:00,29.7,16.8,30.03,NNW,346,4.0,6.0,58,0.00,,---,0.00,VWS V14.01,2013-03-23 03:52:00,
2013-03-22 23:57:00,29.7,17.1,30.03,NNW,338,2.0,8.0,59,0.00,,---,0.00,VWS V14.01,2013-03-23 03:57:00,